Wind_Speed
64 64 62 60 59 59 56 56 55 54 49 39 37 48 64 80 87 95 101 117 117 117 115 114 122 118 115 107 103 96 89 81 80 81 81 76 76 72 68 67 64 62 59 58 54
68 68 70 66 64 60 57 58 54 50 47 38 33 39 55 74 86 91 107 113 122 118 115 113 122 121 116 111 106 100 92 85 86 86 84 78 77 76 72 69 68 64 60 58 56
73 75 72 73 65 62 61 59 54 52 46 38 30 33 46 63 80 96 101 108 119 120 119 118 118 128 118 116 108 102 97 93 91 92 91 83 80 72 77 74 72 67 63 61 56
76 75 78 74 69 63 61 60 58 50 46 37 29 29 39 57 74 90 97 106 113 124 121 117 115 121 118 116 112 107 103 101 97 96 94 87 82 77 75 77 76 71 67 65 60
80 84 81 81 79 66 64 59 55 51 45 36 27 27 35 51 68 83 94 102 108 119 122 121 119 114 118 118 115 109 108 107 105 100 97 91 85 83 79 77 78 74 71 68 66
84 85 88 83 83 72 61 58 53 52 44 36 25 25 32 40 51 70 90 102 107 116 124 122 120 118 120 121 120 115 114 115 113 104 102 96 88 86 83 78 78 78 76 73 69
88 92 90 89 84 76 66 58 54 47 44 35 24 22 27 34 49 63 83 98 104 112 120 125 124 123 119 126 119 120 121 119 114 108 103 100 93 88 86 82 78 78 79 76 74
94 95 99 85 84 77 66 56 54 48 40 35 23 20 29 40 50 63 76 95 102 109 117 123 126 123 120 119 122 122 123 119 116 112 107 103 94 94 90 86 83 80 81 79 76
96 99 104 93 86 80 67 56 51 47 38 34 23 22 32 35 44 57 72 93 102 110 114 119 122 120 120 118 123 121 117 113 119 112 110 103 101 98 97 92 90 86 84 81 79
101 105 107 95 86 79 65 57 50 45 36 31 22 25 27 30 38 54 63 80 98 104 107 111 118 120 118 115 110 116 115 116 119 117 110 106 105 104 102 99 94 91 88 85 83
102 106 110 100 92 77 65 56 51 45 34 28 22 26 27 30 37 47 56 67 84 94 100 104 106 110 113 114 115 113 120 120 121 120 117 112 109 109 106 103 97 96 91 90 91
103 110 110 105 95 78 65 55 51 45 33 25 24 29 30 31 36 43 50 53 68 85 93 99 99 104 115 118 118 116 117 122 123 122 120 117 115 113 109 107 103 100 95 94 94
107 112 116 108 93 82 68 59 55 46 32 22 30 32 33 32 35 44 50 53 63 78 90 94 101 104 108 113 117 114 113 119 123 126 124 121 117 117 113 111 108 104 100 99 96
112 115 117 110 94 84 73 65 55 43 27 24 35 35 36 38 39 46 55 60 60 72 85 95 97 98 98 104 110 115 113 116 116 125 124 121 117 116 114 113 114 109 107 104 102
114 120 118 114 97 88 75 68 52 35 21 23 41 41 39 43 42 41 48 57 64 70 76 81 81 86 91 94 100 108 113 115 117 117 123 127 122 117 116 113 110 112 113 113 110
117 121 121 113 98 85 79 65 42 22 17 29 48 45 41 40 40 39 41 46 58 65 74 77 83 84 87 90 95 101 107 114 118 119 120 113 120 116 114 111 112 111 111 114 112
118 122 122 113 89 83 78 51 28 13 19 38 50 48 46 41 34 30 32 32 36 41 46 52 62 74 77 82 87 91 96 105 116 120 109 113 114 112 122 119 118 116 116 114 113
119 123 121 107 88 85 63 38 17 10 29 44 56 50 47 41 38 36 32 33 37 41 44 48 47 52 61 72 81 87 90 94 105 110 112 121 115 108 113 125 126 121 118 115 112
119 124 119 103 87 81 53 31 7 14 34 55 58 53 47 42 41 38 41 42 39 39 42 42 42 42 49 54 61 73 80 87 91 105 117 121 115 111 111 111 110 123 127 122 117
117 124 122 105 87 74 47 25 4 21 40 53 58 55 50 42 36 37 37 35 33 38 35 29 30 39 39 40 48 55 64 75 84 94 105 116 115 113 111 108 109 109 107 114 123
116 124 121 100 86 66 43 21 8 26 43 55 59 56 52 45 41 38 37 34 32 34 31 31 35 35 38 45 48 52 58 63 71 80 90 103 108 113 114 114 111 108 107 107 104
118 123 113 98 83 59 39 20 11 26 44 54 59 57 54 50 44 38 36 38 36 35 33 32 30 33 34 37 42 47 56 62 66 71 79 87 92 105 110 111 113 111 109 106 105
116 118 107 90 76 53 33 19 12 23 46 57 58 58 55 50 46 42 39 34 29 29 28 28 28 26 23 27 33 36 42 51 62 70 75 79 83 88 90 96 108 110 111 110 109
116 111 102 86 70 47 30 18 10 21 44 59 58 56 55 52 48 43 38 33 30 29 28 25 24 25 25 20 21 25 27 35 43 56 65 73 80 83 84 87 90 96 101 103 104
118 113 104 82 63 40 25 13 11 21 43 57 58 55 57 55 49 50 42 38 34 27 27 25 25 19 19 16 15 19 21 25 26 32 41 51 57 68 74 82 86 89 91 95 96
121 111 87 73 59 37 20 7 12 27 43 57 60 59 58 54 54 48 38 36 33 35 30 23 17 22 17 13 14 17 16 16 19 24 24 30 36 39 45 52 67 78 84 90 92
114 102 88 76 56 35 21 5 13 27 42 59 61 57 58 54 52 42 38 37 35 35 32 25 19 15 16 13 13 12 12 15 15 22 22 24 38 42 44 40 43 46 53 58 41
Wind_Direction
348 347 345 346 344 340 331 327 317 311 307 301 267 238 228 225 221 217 215 213 210 209 210 210 211 212 214 213 211 208 208 214 218 223 224 218 217 209 214 212 213 212 210 212 219
349 349 350 346 345 341 334 326 320 317 313 307 276 241 225 221 220 215 214 213 210 210 209 211 211 211 214 214 212 211 210 213 217 223 225 219 219 214 212 214 213 215 211 217 220
349 349 352 348 345 344 339 331 325 319 317 311 280 243 223 216 211 214 212 213 211 210 209 211 212 211 213 213 213 210 208 215 214 220 225 222 219 216 212 215 214 214 216 216 221
352 352 349 349 349 346 342 339 329 322 318 315 283 247 228 215 207 208 209 210 210 209 210 210 212 213 213 214 215 210 209 216 218 217 224 224 220 217 215 214 217 213 215 218 220
354 352 350 348 349 345 344 338 329 322 318 317 286 251 234 219 207 206 206 207 208 209 209 208 211 213 212 213 214 213 214 217 220 217 222 225 224 218 217 216 216 215 215 219 222
353 355 351 349 349 345 342 338 331 324 318 318 290 252 236 223 212 207 203 205 207 208 208 208 210 212 213 211 213 213 216 219 221 221 221 225 224 223 219 219 217 218 217 219 221
353 355 351 350 349 349 344 338 330 329 318 317 295 252 234 217 212 207 206 206 206 207 209 208 209 211 213 212 211 212 215 219 221 222 223 225 225 224 223 221 219 220 221 219 222
353 351 351 352 349 348 344 339 332 329 318 314 297 249 227 217 210 204 205 206 206 207 209 209 209 210 213 214 212 213 216 218 221 222 224 227 228 226 224 223 222 221 222 222 222
351 352 350 351 349 348 344 335 330 327 318 309 293 246 229 224 217 208 205 203 206 209 209 209 209 211 214 215 215 213 217 219 224 223 225 225 228 229 227 227 225 222 223 224 223
350 350 349 352 347 348 343 337 328 324 314 303 278 242 229 223 212 210 209 206 206 209 211 211 210 211 213 216 217 215 215 218 224 225 225 227 229 231 230 230 229 224 223 223 229
349 349 349 350 347 344 341 337 326 319 309 294 262 237 219 218 211 206 206 208 210 211 210 210 212 213 215 214 216 216 214 215 219 224 225 226 229 231 232 233 234 228 226 228 225
350 351 348 348 344 340 337 333 323 313 301 279 238 226 211 208 205 203 203 203 206 209 212 211 212 215 215 215 215 215 216 215 218 222 225 225 227 231 234 235 237 236 232 230 227
349 349 349 346 344 339 335 329 321 315 294 257 217 212 204 197 197 198 196 199 201 204 207 209 212 215 217 218 218 217 217 217 220 222 223 225 227 229 233 235 238 239 237 235 232
350 349 349 347 345 339 334 329 325 316 286 231 206 201 197 184 191 199 198 196 198 202 206 211 214 216 218 219 221 219 218 220 222 225 225 226 227 229 232 235 238 240 241 239 237
348 348 348 346 344 335 333 329 325 311 268 209 194 194 192 185 187 193 198 200 200 202 207 213 217 219 222 223 224 223 221 221 223 225 227 223 227 229 231 234 239 241 241 242 241
347 348 348 345 343 336 333 328 323 301 233 182 186 186 183 179 188 188 189 198 203 205 210 211 216 219 222 224 225 225 224 223 225 225 227 227 227 226 230 232 235 238 241 244 245
347 347 347 345 342 336 335 330 319 277 188 178 182 182 176 171 168 173 180 184 195 202 202 209 216 221 223 225 226 227 227 226 226 228 229 231 230 226 226 228 231 235 239 242 246
347 347 346 346 342 340 339 335 320 219 184 180 182 181 177 171 175 179 175 180 187 190 192 200 207 213 219 224 225 226 227 229 228 228 230 231 231 229 229 230 231 235 239 244 246
348 347 346 346 343 342 343 341 327 192 178 180 180 179 176 175 177 185 192 197 195 196 201 202 205 211 219 226 228 229 230 231 230 227 229 233 232 233 233 234 234 236 237 239 241
348 347 346 345 343 342 344 343 253 181 183 181 178 179 180 179 181 187 189 192 192 202 205 203 211 222 226 226 228 229 230 232 233 232 232 233 232 234 235 235 237 237 239 240 241
350 346 346 344 345 342 344 339 230 185 187 184 178 179 184 180 182 188 194 197 199 205 205 210 218 224 229 231 232 232 230 230 232 233 234 235 234 234 234 236 238 239 241 242 243
350 346 344 343 343 342 342 332 246 194 191 188 179 182 184 188 187 193 196 197 197 204 205 210 224 230 239 241 238 237 234 232 232 232 233 235 236 236 236 238 240 240 242 243 244
348 346 344 345 343 340 340 325 258 203 190 189 185 184 185 188 191 194 197 198 201 208 207 213 222 233 232 235 239 238 237 234 233 232 232 232 234 235 237 238 240 242 244 245 245
347 348 345 344 343 342 337 323 253 213 191 190 185 188 187 190 193 191 185 189 195 203 206 213 216 230 240 249 250 241 237 234 228 230 228 232 233 233 233 233 234 238 241 244 247
346 348 346 344 344 344 341 325 219 202 197 192 185 189 190 193 199 186 180 189 190 187 204 208 217 227 229 226 225 233 215 213 214 218 217 221 228 233 234 234 236 238 238 239 241
348 348 350 348 348 348 342 325 206 197 197 196 189 189 192 197 196 195 199 195 191 192 202 204 216 214 227 218 206 214 201 176 169 181 192 202 208 205 211 225 233 236 239 241 243
349 351 352 348 350 349 344 292 207 198 195 197 195 190 195 195 194 197 208 207 200 201 204 199 199 218 212 195 194 199 161 149 145 168 175 183 185 188 194 201 214 222 233 237 242
Height
10719 10706 10692 10677 10664 10651 10637 10623 10609 10598 10589 10583 10578 10578 10583 10593 10608 10627 10645 10650 10674 10689 10707 10721 10735 10744 10761 10781 10795 10812 10832 10842 10843 10841 10844 10861 10870 10889 10896 10906 10912 10917 10926 10933 10938
10709 10695 10681 10667 10652 10638 10623 10608 10594 10584 10573 10565 10560 10559 10563 10571 10588 10606 10608 10636 10657 10676 10692 10706 10719 10732 10751 10771 10784 10801 10825 10834 10832 10831 10836 10850 10861 10876 10887 10895 10902 10912 10922 10926 10929
10700 10684 10670 10655 10640 10625 10611 10595 10582 10570 10560 10552 10546 10545 10547 10554 10566 10577 10600 10618 10641 10659 10675 10690 10703 10722 10737 10754 10774 10796 10815 10815 10818 10817 10820 10837 10850 10867 10876 10882 10892 10903 10913 10916 10920
10689 10673 10658 10643 10629 10614 10600 10583 10570 10557 10548 10541 10535 10534 10535 10540 10549 10564 10580 10601 10622 10640 10661 10677 10696 10715 10730 10751 10765 10782 10795 10799 10797 10805 10811 10826 10842 10856 10866 10874 10881 10894 10901 10906 10911
10680 10665 10648 10632 10618 10603 10588 10572 10558 10546 10537 10531 10526 10525 10525 10529 10539 10551 10568 10588 10607 10625 10645 10664 10682 10700 10714 10735 10751 10768 10778 10780 10777 10795 10801 10814 10831 10844 10855 10864 10873 10884 10894 10897 10902
10671 10655 10638 10622 10606 10591 10578 10561 10546 10537 10528 10522 10517 10516 10518 10526 10539 10543 10556 10573 10590 10607 10628 10648 10666 10680 10690 10711 10731 10749 10754 10754 10762 10782 10794 10802 10819 10834 10845 10857 10865 10874 10881 10889 10895
10661 10645 10630 10612 10594 10580 10566 10552 10538 10527 10519 10513 10510 10509 10512 10517 10520 10533 10546 10562 10580 10592 10610 10627 10645 10661 10678 10695 10713 10727 10733 10740 10757 10776 10788 10793 10809 10827 10836 10847 10855 10863 10870 10879 10884
10649 10634 10620 10602 10584 10569 10555 10542 10528 10519 10510 10505 10502 10503 10503 10504 10506 10516 10531 10551 10570 10582 10597 10617 10634 10652 10663 10683 10700 10714 10721 10740 10750 10763 10777 10787 10807 10811 10823 10833 10842 10852 10858 10867 10873
10641 10624 10608 10592 10574 10559 10546 10532 10520 10510 10501 10497 10494 10495 10494 10501 10507 10515 10521 10532 10552 10566 10580 10605 10625 10646 10658 10672 10689 10707 10734 10750 10739 10759 10764 10786 10792 10796 10808 10815 10825 10837 10846 10854 10861
10630 10613 10596 10580 10563 10549 10535 10523 10512 10501 10493 10488 10486 10487 10491 10494 10499 10505 10520 10534 10544 10559 10582 10602 10618 10633 10650 10668 10693 10714 10724 10732 10734 10747 10762 10775 10780 10780 10791 10798 10810 10823 10835 10843 10849
10621 10602 10582 10565 10552 10537 10523 10512 10502 10491 10484 10478 10479 10480 10483 10488 10492 10501 10513 10529 10547 10560 10577 10595 10612 10633 10643 10653 10667 10686 10701 10711 10711 10727 10742 10759 10763 10765 10776 10786 10798 10811 10822 10827 10836
10612 10593 10571 10552 10537 10522 10510 10498 10486 10479 10470 10467 10469 10472 10477 10482 10488 10496 10509 10525 10540 10555 10574 10591 10607 10610 10617 10630 10646 10668 10685 10697 10694 10706 10724 10740 10751 10756 10764 10775 10782 10795 10809 10813 10823
10601 10581 10561 10538 10521 10505 10493 10480 10469 10462 10456 10455 10458 10465 10471 10479 10486 10490 10501 10512 10523 10543 10561 10577 10580 10589 10609 10625 10640 10659 10675 10681 10683 10689 10708 10722 10735 10747 10753 10763 10769 10782 10795 10801 10807
10590 10569 10546 10527 10506 10488 10475 10462 10452 10446 10442 10442 10449 10459 10464 10473 10479 10486 10495 10504 10524 10537 10547 10554 10571 10591 10605 10618 10628 10646 10657 10665 10671 10677 10701 10709 10730 10736 10745 10749 10757 10769 10779 10786 10793
10577 10557 10532 10511 10494 10469 10458 10444 10434 10428 10427 10432 10443 10452 10460 10468 10476 10485 10495 10506 10516 10529 10547 10560 10576 10586 10597 10605 10613 10627 10639 10650 10657 10666 10673 10696 10712 10735 10732 10749 10754 10759 10763 10766 10773
10564 10541 10523 10497 10475 10456 10441 10427 10419 10414 10416 10426 10437 10447 10458 10467 10474 10485 10493 10504 10514 10524 10535 10549 10556 10570 10578 10592 10602 10605 10623 10635 10642 10647 10659 10689 10706 10720 10734 10746 10739 10734 10741 10748 10762
10555 10530 10506 10487 10463 10442 10425 10411 10406 10405 10412 10424 10437 10445 10455 10464 10477 10488 10497 10508 10517 10527 10539 10547 10552 10561 10574 10580 10585 10598 10609 10620 10629 10639 10675 10673 10679 10714 10719 10715 10718 10722 10724 10733 10752
10546 10525 10498 10475 10451 10430 10413 10402 10398 10401 10404 10412 10431 10445 10455 10465 10474 10484 10495 10503 10510 10517 10525 10532 10546 10553 10558 10561 10570 10582 10594 10606 10618 10645 10658 10632 10660 10698 10690 10701 10709 10714 10718 10728 10743
10539 10513 10487 10464 10443 10424 10409 10401 10397 10398 10403 10411 10427 10443 10455 10465 10473 10483 10490 10496 10505 10514 10520 10528 10538 10546 10550 10559 10567 10573 10587 10592 10608 10614 10618 10622 10656 10663 10679 10692 10701 10704 10708 10719 10723
10536 10506 10477 10454 10436 10419 10408 10402 10398 10399 10402 10412 10425 10440 10453 10464 10475 10484 10490 10498 10505 10509 10518 10529 10536 10537 10546 10555 10559 10563 10569 10579 10591 10602 10612 10612 10638 10651 10663 10674 10680 10687 10691 10699 10708
10529 10497 10470 10445 10430 10414 10405 10402 10399 10398 10404 10412 10425 10439 10452 10463 10470 10479 10485 10495 10502 10508 10518 10525 10527 10533 10537 10541 10546 10552 10558 10565 10574 10585 10593 10599 10618 10633 10644 10651 10661 10669 10677 10686 10691
10525 10496 10465 10440 10424 10410 10403 10399 10398 10397 10402 10412 10424 10436 10449 10459 10466 10478 10484 10489 10499 10506 10513 10515 10521 10525 10529 10533 10537 10542 10547 10553 10562 10569 10577 10585 10600 10610 10626 10640 10645 10655 10658 10667 10676
10518 10493 10459 10439 10421 10409 10401 10397 10397 10397 10402 10412 10424 10433 10446 10456 10464 10471 10480 10490 10500 10504 10508 10512 10516 10520 10524 10524 10526 10530 10532 10538 10544 10553 10562 10571 10580 10593 10610 10622 10631 10640 10645 10650 10656
10512 10486 10457 10435 10418 10405 10398 10395 10395 10398 10401 10410 10423 10435 10445 10453 10459 10469 10479 10490 10495 10499 10505 10509 10512 10515 10517 10520 10521 10521 10523 10525 10532 10539 10547 10557 10565 10576 10587 10597 10609 10615 10623 10629 10634
10499 10476 10455 10430 10412 10402 10396 10393 10393 10398 10405 10412 10425 10435 10442 10449 10457 10466 10478 10485 10489 10497 10501 10506 10510 10514 10517 10518 10519 10519 10519 10520 10525 10530 10536 10543 10551 10559 10571 10582 10591 10597 10604 10607 10613
10485 10464 10443 10423 10408 10399 10393 10391 10392 10397 10406 10416 10423 10431 10440 10448 10458 10470 10479 10483 10489 10493 10498 10504 10509 10513 10516 10517 10517 10518 10521 10519 10525 10528 10534 10539 10544 10552 10556 10562 10570 10579 10583 10592 10600
10477 10455 10435 10419 10405 10397 10391 10389 10390 10396 10406 10414 10422 10432 10439 10448 10462 10472 10478 10483 10488 10491 10497 10502 10508 10513 10516 10518 10520 10522 10524 10524 10527 10531 10535 10539 10543 10547 10551 10555 10560 10565 10569 10578 10584